Regional Weather Roundup
Issued by NWS

Home | Current Version | Previous Version | Text Only | Print | Product List | Glossary On
Versions: 1 2 3 4 5 6 7 8 9 10 11 12 13 14 15 16 17 18 19 20 21 22 23 24 25 26 27 28 29 30 31 32 33 34 35 36 37 38 39 40 41 42 43 44 45 46 47 48 49 50
929
ASUS44 KLIX 041510
RWRLA
LOUISIANA WEATHER ROUNDUP
NATIONAL WEATHER SERVICE NEW ORLEANS LA
900 AM CST WED MAR 04 2015

NOTE: "FAIR" INDICATES FEW OR NO CLOUDS BELOW 12,000 FEET WITH NO
      SIGNIFICANT WEATHER AND/OR OBSTRUCTIONS TO VISIBILITY.
      SKY/WX - SKY CONDITION AND SIGNIFICANT WEATHER.
      TMP - AIR TEMPERATURE.    DP   - DEWPOINT TEMPERATURE.
      RH  - RELATIVE HUMIDITY.  PRES - PRESSURE.
      HX  - HEAT INDEX.         WCI  - WIND CHILL INDEX.

*  THESE STATIONS ARE NOT NWS OR FAA STATIONS AND ARE NOT UNDER
   NWS QUALITY CONTROL.

LAZ040-048-061>063-065-066-069-041600-
SOUTHEAST LOUISIANA

CITY           SKY/WX    TMP DP  RH WIND       PRES   REMARKS
N.O. AUDUBON     N/A     76  73  91 MISG        N/A
N.O. INTL ARPT MOSUNNY   74  68  81 S7        30.01R
N.O. LAKEFRONT PTSUNNY   75  68  78 S8        30.02S
SLIDELL        CLOUDY    72  68  87 S6        30.02S
BATON ROUGE    PTSUNNY   73  69  87 S10       29.99S
BOOTHVILLE     PTSUNNY   73  70  90 SE5       30.03R
BELLE CHASSE   PTSUNNY   73  67  81 S6        30.02R
BOGALUSA*        N/A     71  67  86 S7        30.03S
GALLIANO*      SUNNY     77  72  83 S8        30.02R
NEW ROADS*     CLOUDY    70  68  92 SE8       29.99R
GONZALES*      CLOUDY    69  69 100 CALM      30.00R FOG
HAMMOND*       FOG       68  66  94 CALM      30.03S VSB 1/2
HOUMA*         MOSUNNY   73  72  94 SE6       30.00R
PORT FOURCHON* MOSUNNY   75  70  83 S6        30.05R

$$

LAZ041-044-053-054-041600-
SOUTHWEST LOUISIANA

CITY           SKY/WX    TMP DP  RH WIND       PRES   REMARKS
LAKE CHARLES   CLOUDY    70  67  90 SE7       29.95R
LAFAYETTE      CLOUDY    71  68  90 S7        29.98R
PATTERSON      MOSUNNY   72  70  94 S8        29.99S
SALT POINT       N/A     70  69  97 SE8       29.97S
NEW IBERIA     SUNNY     73  70  90 MISG      29.98R
CHENAULT AIRPK CLOUDY    70  66  88 VRB6      29.96R

$$

LAZ027-028-041600-
CENTRAL LOUISIANA

CITY           SKY/WX    TMP DP  RH WIND       PRES   REMARKS
FORT POLK      CLOUDY    71  67  87 S8        29.95R
ALEXANDRIA INT CLOUDY    70  68  93 SE6       29.95R
ALEXANDRIA     CLOUDY    72  67  84 S7        29.97R

$$

LAZ001-002-041600-
NORTHWEST LOUISIANA

CITY           SKY/WX    TMP DP  RH WIND       PRES   REMARKS
SHREVEPORT     CLOUDY    69  66  90 S8        29.89R FOG
BARKSDALE AFB  CLOUDY    66  66 100 S8        29.89R
DTN SHREVEPORT CLOUDY    67  64  90 S8        29.89S

$$

LAZ014-016-041600-
NORTHEAST LOUISIANA

CITY           SKY/WX    TMP DP  RH WIND       PRES   REMARKS
MONROE         CLOUDY    72  68  87 S13G21    29.93S
TALLULAH       CLOUDY    72  66  81 S8        29.97R

$$




USA.gov is the U.S. government's official web portal to all federal, state and local government web resources and services.